H1 CPF 2 NER 2024 9 5 9 249 01 glonass144 H2 2207501 9144 52984 2024 9 5 0 0 0 2024 9 8 23 45 0 900 1 1 0 0 0 1 H9 10 0 60558 0.00000 0 -20353115.771 -4417561.962 -14703098.797 10 0 60558 900.00000 0 -18398154.660 -4624429.448 -17027337.793 10 0 60558 1800.00000 0 -16204331.404 -5033749.375 -19020199.022 10 0 60558 2700.00000 0 -13832888.068 -5666657.046 -20642817.067 10 0 60558 3600.00000 0 -11349799.988 -6532530.440 -21863533.509 10 0 60558 4500.00000 0 -8823185.482 -7628394.991 -22658521.445 10 0 60558 5400.00000 0 -6320638.258 -8938862.609 -23012256.007 10 0 60558 6300.00000 0 -3906594.122 -10436608.942 -22917821.407 10 0 60558 7200.00000 0 -1639842.111 -12083369.834 -22377048.284 10 0 60558 8100.00000 0 428716.018 -13831415.942 -21400478.550 10 0 60558 9000.00000 0 2257964.594 -15625444.027 -20007158.362 10 0 60558 9900.00000 0 3818052.261 -17404805.622 -18224263.276 10 0 60558 10800.00000 0 5091388.660 -19105979.367 -16086563.049 10 0 60558 11700.00000 0 6073119.070 -20665182.854 -13635736.784 10 0 60558 12600.00000 0 6771058.626 -22021013.706 -10919552.194 10 0 60558 13500.00000 0 7205090.789 -23117008.448 -7990925.616 10 0 60558 14400.00000 0 7406057.441 -23904011.122 -4906881.788 10 0 60558 15300.00000 0 7414189.525 -24342251.724 -1727434.582 10 0 60558 16200.00000 0 7277146.628 -24403047.144 1485588.592 10 0 60558 17100.00000 0 7047750.204 -24070053.204 4669754.952 10 0 60558 18000.00000 0 6781507.895 -23340015.633 7763242.784 10 0 60558 18900.00000 0 6534034.914 -22222989.285 10706041.968 10 0 60558 19800.00000 0 6358482.315 -20742017.220 13441115.085 10 0 60558 20700.00000 0 6303081.131 -18932284.048 15915496.664 10 0 60558 21600.00000 0 6408906.006 -16839779.684 18081309.837 10 0 60558 22500.00000 0 6707952.227 -14519529.880 19896681.628 10 0 60558 23400.00000 0 7221606.575 -12033467.521 21326540.291 10 0 60558 24300.00000 0 7959575.708 -9448033.044 22343280.703 10 0 60558 25200.00000 0 8919316.602 -6831603.021 22927286.313 10 0 60558 26100.00000 0 10085992.741 -4251852.542 23067298.863 10 0 60558 27000.00000 0 11432958.099 -1773159.350 22760629.782 10 0 60558 27900.00000 0 12922749.268 545844.409 22013209.813 10 0 60558 28800.00000 0 14508545.283 2654473.060 20839476.180 10 0 60558 29700.00000 0 16136035.512 4511851.381 19262099.215 10 0 60558 30600.00000 0 17745619.102 6088365.872 17311553.065 10 0 60558 31500.00000 0 19274845.706 7366644.220 15025537.744 10 0 60558 32400.00000 0 20660996.847 8342023.116 12448262.443 10 0 60558 33300.00000 0 21843701.143 9022485.453 9629602.552 10 0 60558 34200.00000 0 22767474.546 9428069.782 6624145.425 10 0 60558 35100.00000 0 23384079.361 9589776.776 3490142.170 10 0 60558 36000.00000 0 23654602.720 9548018.511 288384.909 10 0 60558 36900.00000 0 23551166.409 9350675.662 -2918969.219 10 0 60558 37800.00000 0 23058194.902 9050844.482 -6069604.653 10 0 60558 38700.00000 0 22173186.753 8704368.813 -9102261.002 10 0 60558 39600.00000 0 20906955.131 8367261.828 -11957929.487 10 0 60558 40500.00000 0 19283325.667 8093127.205 -14581008.317 10 0 60558 41400.00000 0 17338302.617 7930689.786 -16920393.668 10 0 60558 42300.00000 0 15118736.959 7921541.330 -18930484.167 10 0 60558 43200.00000 0 12680551.133 8098198.046 -20572078.503 10 0 60558 44100.00000 0 10086593.972 8482553.414 -21813147.995 10 0 60558 45000.00000 0 7404215.131 9084793.074 -22629468.439 10 0 60558 45900.00000 0 4702660.134 9902818.910 -23005098.497 10 0 60558 46800.00000 0 2050394.792 10922207.814 -22932694.956 10 0 60558 47700.00000 0 -487529.296 12116707.848 -22413658.498 10 0 60558 48600.00000 0 -2851958.219 13449251.595 -21458107.000 10 0 60558 49500.00000 0 -4991864.726 14873444.500 -20084676.832 10 0 60558 50400.00000 0 -6866229.951 16335465.665 -18320156.057 10 0 60558 51300.00000 0 -8445499.948 17776300.959 -16198956.848 10 0 60558 52200.00000 0 -9712557.115 19134214.109 -13762437.635 10 0 60558 53100.00000 0 -10663167.156 20347351.147 -11058088.657 10 0 60558 54000.00000 0 -11305884.549 21356367.955 -8138597.381 10 0 60558 54900.00000 0 -11661422.451 22106969.586 -5060812.698 10 0 60558 55800.00000 0 -11761515.726 22552253.924 -1884629.006 10 0 60558 56700.00000 0 -11647327.195 22654760.609 1328187.186 10 0 60558 57600.00000 0 -11367466.419 22388138.847 4515204.420 10 0 60558 58500.00000 0 -10975706.598 21738364.133 7614542.892 10 0 60558 59400.00000 0 -10528497.462 20704453.040 10566076.331 10 0 60558 60300.00000 0 -10082380.359 19298646.675 13312595.584 10 0 60558 61200.00000 0 -9691415.274 17546055.857 15800911.398 10 0 60558 62100.00000 0 -9404728.425 15483783.387 17982875.573 10 0 60558 63000.00000 0 -9264283.484 13159560.528 19816301.616 10 0 60558 63900.00000 0 -9302969.671 10629954.754 21265768.189 10 0 60558 64800.00000 0 -9543086.305 7958223.135 22303291.229 10 0 60558 65700.00000 0 -9995286.696 5211899.923 22908853.122 10 0 60558 66600.00000 0 -10658025.054 2460217.429 23070780.006 10 0 60558 67500.00000 0 -11517529.268 -228534.300 22785960.960 10 0 60558 68400.00000 0 -12548300.819 -2789601.305 22059905.567 10 0 60558 69300.00000 0 -13714121.385 -5164207.357 20906638.956 10 0 60558 70200.00000 0 -14969524.966 -7301744.052 19348436.177 10 0 60558 71100.00000 0 -16261675.168 -9161620.189 17415400.383 10 0 60558 72000.00000 0 -17532570.454 -10714694.998 15144891.958 10 0 60558 72900.00000 0 -18721486.429 -11944236.686 12580818.392 10 0 60558 73800.00000 0 -19767554.021 -12846367.045 9772797.221 10 0 60558 74700.00000 0 -20612366.275 -13429973.889 6775206.935 10 0 60558 75600.00000 0 -21202504.770 -13716095.048 3646143.036 10 0 60558 76500.00000 0 -21491879.360 -13736799.626 446298.567 10 0 60558 77400.00000 0 -21443782.190 -13533613.338 -2762209.703 10 0 60558 78300.00000 0 -21032568.436 -13155554.037 -5917046.842 10 0 60558 79200.00000 0 -20244891.449 -12656860.264 -8956873.493 10 0 60558 80100.00000 0 -19080438.505 -12094508.858 -11822543.702 10 0 60558 81000.00000 0 -17552134.258 -11525626.969 -14458262.820 10 0 60558 81900.00000 0 -15685801.392 -11004908.528 -16812682.188 10 0 60558 82800.00000 0 -13519290.952 -10582145.311 -18839908.354 10 0 60558 83700.00000 0 -11101117.331 -10299978.001 -20500406.415 10 0 60558 84600.00000 0 -8488653.847 -10191963.467 -21761779.135 10 0 60558 85500.00000 0 -5745963.600 -10281041.008 -22599406.078 10 0 60559 0.00000 0 -2941355.927 -10578463.397 -22996929.810 10 0 60559 900.00000 0 -144768.693 -11083238.971 -22946579.518 10 0 60559 1800.00000 0 2574910.731 -11782108.603 -22449325.037 10 0 60559 2700.00000 0 5152479.075 -12650059.591 -21514858.866 10 0 60559 3600.00000 0 7528891.890 -13651354.743 -20161405.826 10 0 60559 4500.00000 0 9653477.778 -14741033.366 -18415364.388 10 0 60559 5400.00000 0 11485799.890 -15866820.649 -16310786.741 10 0 60559 6300.00000 0 12997087.616 -16971364.448 -13888708.012 10 0 60559 7200.00000 0 14171179.621 -17994704.495 -11196338.132 10 0 60559 8100.00000 0 15004940.135 -18876869.095 -8286132.681 10 0 60559 9000.00000 0 15508132.758 -19560488.982 -5214761.572 10 0 60559 9900.00000 0 15702759.124 -19993317.346 -2041996.528 10 0 60559 10800.00000 0 15621892.389 -20130549.121 1170460.042 10 0 60559 11700.00000 0 15308056.837 -19936841.402 4360181.098 10 0 60559 12600.00000 0 14811223.911 -19387949.663 7465231.674 10 0 60559 13500.00000 0 14186510.961 -18471910.982 10425372.026 10 0 60559 14400.00000 0 13491681.179 -17189724.923 13183223.620 10 0 60559 15300.00000 0 12784550.986 -15555503.844 15685375.411 10 0 60559 16200.00000 0 12120414.490 -13596086.782 17883409.473 10 0 60559 17100.00000 0 11549593.325 -11350133.407 19734826.990 10 0 60559 18000.00000 0 11115214.364 -8866735.889 21203857.830 10 0 60559 18900.00000 0 10851307.822 -6203606.332 22262139.396 10 0 60559 19800.00000 0 10781304.576 -3424914.467 22889253.053 10 0 60559 20700.00000 0 10916994.728 -598864.424 23073109.033 10 0 60559 21600.00000 0 11257990.290 2204890.349 22810173.486 10 0 60559 22500.00000 0 11791713.990 4917888.551 22105533.986 10 0 60559 23400.00000 0 12493914.672 7475451.263 20972802.512 10 0 60559 24300.00000 0 13329688.050 9819115.484 19433857.605 10 0 60559 25200.00000 0 14254960.900 11898811.826 17518430.044 10 0 60559 26100.00000 0 15218377.514 13674697.439 15263539.078 10 0 60559 27000.00000 0 16163510.561 15118569.153 12712788.849 10 0 60559 27900.00000 0 17031304.726 16214798.787 9915537.261 10 0 60559 28800.00000 0 17762651.428 16960751.977 6925952.011 10 0 60559 29700.00000 0 18300986.976 17366673.104 3801970.926 10 0 60559 30600.00000 0 18594804.913 17455040.977 604185.765 10 0 60559 31500.00000 0 18599976.373 17259422.021 -2605329.364 10 0 60559 32400.00000 0 18281779.712 16822868.863 -5764222.482 10 0 60559 33300.00000 0 17616552.479 16195931.565 -8811077.583 10 0 60559 34200.00000 0 16592894.342 15434365.288 -11686613.745 10 0 60559 35100.00000 0 15212368.256 14596631.323 -14334845.552 10 0 60559 36000.00000 0 13489668.262 13741297.396 -16704181.418 10 0 60559 36900.00000 0 11452244.799 12924447.704 -18748437.572 10 0 60559 37800.00000 0 9139401.399 12197212.861 -20427747.101 10 0 60559 38700.00000 0 6600899.002 11603524.937 -21709345.669 10 0 60559 39600.00000 0 3895125.119 11178193.278 -22568217.912 10 0 60559 40500.00000 0 1086903.450 10945383.165 -22987591.503 10 0 60559 41400.00000 0 -1754965.123 10917562.181 -22959268.861 10 0 60559 42300.00000 0 -4560327.876 11094959.269 -22483789.809 10 0 60559 43200.00000 0 -7260362.527 11465559.571 -21570421.890 10 0 60559 44100.00000 0 -9790204.697 12005635.345 -20236978.429 10 0 60559 45000.00000 0 -12091411.011 12680790.330 -18509467.948 10 0 60559 45900.00000 0 -14114155.256 13447473.078 -16421581.917 10 0 60559 46800.00000 0 -15819066.346 14254894.726 -14014031.034 10 0 60559 47700.00000 0 -17178631.923 15047269.411 -11333743.468 10 0 60559 48600.00000 0 -18178109.900 15766281.759 -8432941.188 10 0 60559 49500.00000 0 -18815911.208 16353676.254 -5368113.164 10 0 60559 50400.00000 0 -19103439.343 16753858.159 -2198906.283 10 0 60559 51300.00000 0 -19064395.432 16916395.276 1013043.484 10 0 60559 52200.00000 0 -18733580.152 16798314.344 4205316.020 10 0 60559 53100.00000 0 -18155244.923 16366094.697 7315923.852 10 0 60559 54000.00000 0 -17381063.729 15597275.023 10284516.540 10 0 60559 54900.00000 0 -16467812.574 14481605.633 13053549.058 10 0 60559 55800.00000 0 -15474855.440 13021698.056 15569391.500 10 0 60559 56700.00000 0 -14461543.147 11233144.991 17783359.111 10 0 60559 57600.00000 0 -13484634.539 9144105.745 19652643.561 10 0 60559 58500.00000 0 -12595847.948 6794374.578 21141128.553 10 0 60559 59400.00000 0 -11839644.836 4233970.549 22220075.338 10 0 60559 60300.00000 0 -11251337.434 1521306.940 22868666.314 10 0 60559 61200.00000 0 -10855598.415 -1278984.614 23074397.495 10 0 60559 62100.00000 0 -10665433.812 -4098486.336 22833313.355 10 0 60559 63000.00000 0 -10681661.239 -6867583.682 22150080.252 10 0 60559 63900.00000 0 -10892914.609 -9518106.336 21037897.313 10 0 60559 64800.00000 0 -11276174.993 -11985913.289 19518246.349 10 0 60559 65700.00000 0 -11797805.603 -14213316.586 17620485.038 10 0 60559 66600.00000 0 -12415048.152 -16151244.723 15381290.249 10 0 60559 67500.00000 0 -13077918.670 -17761057.021 12843961.077 10 0 60559 68400.00000 0 -13731424.179 -19015934.331 10057593.647 10 0 60559 69300.00000 0 -14318007.885 -19901788.494 7076142.360 10 0 60559 70200.00000 0 -14780120.727 -20417652.646 3957384.542 10 0 60559 71100.00000 0 -15062811.182 -20575535.802 761807.591 10 0 60559 72000.00000 0 -15116224.002 -20399747.382 -2448560.329 10 0 60559 72900.00000 0 -14897901.770 -19925719.572 -5611353.644 10 0 60559 73800.00000 0 -14374790.951 -19198376.616 -8665083.241 10 0 60559 74700.00000 0 -13524866.193 -18270119.414 -11550336.832 10 0 60559 75600.00000 0 -12338302.389 -17198510.272 -14210941.780 10 0 60559 76500.00000 0 -10818142.978 -16043755.603 -16595066.998 10 0 60559 77400.00000 0 -8980434.132 -14866093.123 -18656241.537 10 0 60559 78300.00000 0 -6853817.090 -13723194.314 -20354269.254 10 0 60559 79200.00000 0 -4478593.824 -12667692.378 -21656020.983 10 0 60559 80100.00000 0 -1905303.612 -11744940.595 -22536088.144 10 0 60559 81000.00000 0 807131.173 -10991096.252 -22977284.581 10 0 60559 81900.00000 0 3593613.470 -10431611.392 -22970986.475 10 0 60559 82800.00000 0 6385342.457 -10080194.301 -22517303.469 10 0 60559 83700.00000 0 9112444.178 -9938285.625 -21625077.491 10 0 60559 84600.00000 0 11706652.268 -9995070.979 -20311709.244 10 0 60559 85500.00000 0 14103926.903 -10228029.142 -18602815.770 10 0 60560 0.00000 0 16246902.563 -10603991.967 -16531726.076 10 0 60560 900.00000 0 18087063.630 -11080670.621 -14138823.759 10 0 60560 1800.00000 0 19586554.469 -11608582.097 -11470752.719 10 0 60560 2700.00000 0 20719552.729 -12133294.100 -8579498.309 10 0 60560 3600.00000 0 21473146.441 -12597891.724 -5521365.255 10 0 60560 4500.00000 0 21847680.637 -12945560.611 -2355872.081 10 0 60560 5400.00000 0 21856560.501 -13122176.331 855415.316 10 0 60560 6300.00000 0 21525521.093 -13078789.632 4050087.371 10 0 60560 7200.00000 0 20891396.226 -12773901.897 7166107.593 10 0 60560 8100.00000 0 20000440.308 -12175434.446 10143018.090 10 0 60560 9000.00000 0 18906275.301 -11262308.484 12923110.213 10 0 60560 9900.00000 0 17667550.504 -10025569.270 15452537.642 10 0 60560 10800.00000 0 16345414.308 -8469007.433 17682350.782 10 0 60560 11700.00000 0 15000904.370 -6609251.514 19569433.304 10 0 60560 12600.00000 0 13692365.482 -4475327.879 21077323.786 10 0 60560 13500.00000 0 12473002.593 -2107706.190 22176907.929 10 0 60560 14400.00000 0 11388670.320 443130.357 22846969.346 10 0 60560 15300.00000 0 10475990.066 3118531.398 23074589.618 10 0 60560 16200.00000 0 9760872.025 5853866.934 22855390.961 10 0 60560 17100.00000 0 9257502.498 8580966.847 22193617.612 10 0 60560 18000.00000 0 8967837.782 11230712.951 21102054.636 10 0 60560 18900.00000 0 8881625.032 13735678.003 19601785.664 10 0 60560 19800.00000 0 8976948.936 16032704.010 17721793.588 10 0 60560 20700.00000 0 9221281.370 18065314.414 15498411.046 10 0 60560 21600.00000 0 9572990.493 19785861.209 12974630.053 10 0 60560 22500.00000 0 9983246.551 21157318.555 10199282.795 10 0 60560 23400.00000 0 10398245.027 22154648.561 7226108.076 10 0 60560 24300.00000 0 10761654.172 22765682.279 4112720.307 10 0 60560 25200.00000 0 11017184.152 22991478.760 919500.030 10 0 60560 26100.00000 0 11111169.445 22846146.560 -2291573.074 10 0 60560 27000.00000 0 10995054.990 22356134.530 -5458122.337 10 0 60560 27900.00000 0 10627680.185 21559020.995 -8518587.958 10 0 60560 28800.00000 0 9977262.829 20501851.693 -11413428.544 10 0 60560 29700.00000 0 9022997.489 19239096.044 -14086286.309 10 0 60560 30600.00000 0 7756198.741 17830307.652 -16485092.496 10 0 60560 31500.00000 0 6180938.919 16337587.707 -18563090.607 10 0 60560 32400.00000 0 4314151.261 14822958.405 -20279756.673 10 0 60560 33300.00000 0 2185192.031 13345757.459 -21601597.920 10 0 60560 34200.00000 0 -165121.872 11960163.913 -22502813.577 10 0 60560 35100.00000 0 -2685961.047 10712959.894 -22965804.497 10 0 60560 36000.00000 0 -5318358.046 9641622.859 -22981521.233 10 0 60560 36900.00000 0 -7997430.591 8772828.833 -22549643.574 10 0 60560 37800.00000 0 -10654861.175 8121429.552 -21678587.839 10 0 60560 38700.00000 0 -13221529.748 7689946.256 -20385341.757 10 0 60560 39600.00000 0 -15630189.548 7468600.859 -18695130.137 10 0 60560 40500.00000 0 -17818074.306 7435882.283 -16640918.031 10 0 60560 41400.00000 0 -19729327.852 7559622.979 -14262761.270 10 0 60560 42300.00000 0 -21317154.605 7798538.872 -11607017.487 10 0 60560 43200.00000 0 -22545601.264 8104166.270 -8725433.568 10 0 60560 44100.00000 0 -23390895.687 8423112.380 -5674127.999 10 0 60560 45000.00000 0 -23842287.706 8699522.811 -2512488.850 10 0 60560 45900.00000 0 -23902357.908 8877660.366 697990.257 10 0 60560 46800.00000 0 -23586782.925 8904484.912 3894912.625 10 0 60560 47700.00000 0 -22923568.804 8732124.385 7016195.159 10 0 60560 48600.00000 0 -21951786.357 8320131.890 10001275.030 10 0 60560 49500.00000 0 -20719863.308 7637433.312 12792282.580 10 0 60560 50400.00000 0 -19283506.487 6663883.329 15335157.710 10 0 60560 51300.00000 0 -17703342.128 5391364.389 17580688.589 10 0 60560 52200.00000 0 -16042373.749 3824382.639 19485453.378 10 0 60560 53100.00000 0 -14363364.083 1980135.880 21012647.830 10 0 60560 54000.00000 0 -12726250.030 -111949.408 22132784.112 10 0 60560 54900.00000 0 -11185697.621 -2411193.084 22824248.757 10 0 60560 55800.00000 0 -9788897.785 -4867108.542 23073710.239 10 0 60560 56700.00000 0 -8573693.293 -7421262.988 22876369.468 10 0 60560 57600.00000 0 -7567113.465 -10009474.993 22236049.102 10 0 60560 58500.00000 0 -6784376.316 -12564259.740 21165120.301 10 0 60560 59400.00000 0 -6228398.638 -15017422.325 19684268.252 10 0 60560 60300.00000 0 -5889833.644 -17302693.260 17822100.417 10 0 60560 61200.00000 0 -5747634.215 -19358298.360 15614604.156 10 0 60560 62100.00000 0 -5770118.151 -21129357.506 13104462.997 10 0 60560 63000.00000 0 -5916491.007 -22570013.437 10340243.431 10 0 60560 63900.00000 0 -6138763.021 -23645202.289 7375466.602 10 0 60560 64800.00000 0 -6383979.987 -24331992.037 4267581.679 10 0 60560 65700.00000 0 -6596674.441 -24620432.503 1076859.784 10 0 60560 66600.00000 0 -6721433.859 -24513880.659 -2134770.656 10 0 60560 67500.00000 0 -6705477.179 -24028786.711 -5304924.836 10 0 60560 68400.00000 0 -6501130.071 -23193949.004 -8371975.386 10 0 60560 69300.00000 0 -6068093.199 -22049268.191 -11276255.040 10 0 60560 70200.00000 0 -5375406.079 -20644052.357 -13961224.150 10 0 60560 71100.00000 0 -4403021.700 -19034943.872 -16374579.552 10 0 60560 72000.00000 0 -3142923.349 -17283555.001 -18469282.296 10 0 60560 72900.00000 0 -1599734.382 -15453911.734 -20204483.434 10 0 60560 73800.00000 0 209206.921 -13609813.500 -21546329.043 10 0 60560 74700.00000 0 2254312.532 -11812220.121 -22468628.167 10 0 60560 75600.00000 0 4494732.135 -10116776.143 -22953370.130 10 0 60560 76500.00000 0 6879822.888 -8571576.792 -22991080.794 10 0 60560 77400.00000 0 9351040.995 -7215269.591 -22581010.489 10 0 60560 78300.00000 0 11844176.631 -6075571.203 -21731149.829 10 0 60560 79200.00000 0 14291839.163 -5168261.502 -20458072.997 10 0 60560 80100.00000 0 16626088.804 -4496696.432 -18786611.579 10 0 60560 81000.00000 0 18781104.613 -4051859.202 -16749365.438 10 0 60560 81900.00000 0 20695777.060 -3812946.353 -14386060.397 10 0 60560 82800.00000 0 22316116.520 -3748462.520 -11742765.688 10 0 60560 83700.00000 0 23597376.826 -3817776.015 -8870986.996 10 0 60560 84600.00000 0 24505805.080 -3973067.796 -5826653.452 10 0 60560 85500.00000 0 25019944.882 -4161589.710 -2669019.230 10 0 60561 0.00000 0 25131439.162 -4328134.874 540497.675 10 0 60561 900.00000 0 24845299.982 -4417614.375 3739517.713 10 0 60561 1800.00000 0 24179635.323 -4377629.947 6865914.555 10 0 60561 2700.00000 0 23164845.984 -4160933.315 9859023.895 10 0 60561 3600.00000 0 21842327.683 -3727667.602 12660818.204 10 0 60561 4500.00000 0 20262734.254 -3047296.097 15217026.384 10 0 60561 5400.00000 0 18483875.815 -2100137.163 17478176.713 10 0 60561 6300.00000 0 16568340.557 -878440.852 19400543.748 10 0 60561 7200.00000 0 14580939.755 613037.811 20946981.874 10 0 60561 8100.00000 0 12586082.359 2356992.894 22087630.753 10 0 60561 9000.00000 0 10645187.854 4324051.115 22800480.428 10 0 60561 9900.00000 0 8814243.932 6473765.292 23071786.446 10 0 60561 10800.00000 0 7141609.171 8756077.158 22896328.170 10 0 60561 11700.00000 0 5666150.462 11113190.011 22277506.029 10 0 60561 12600.00000 0 4415791.118 13481774.823 21227276.238 10 0 60561 13500.00000 0 3406528.639 15795419.894 19765924.145 10 0 60561 14400.00000 0 2641961.874 17987224.017 17921680.061 10 0 60561 15300.00000 0 2113346.521 19992426.988 15730184.071 10 0 60561 16200.00000 0 1800176.190 21750969.425 13233808.999 10 0 60561 17100.00000 0 1671264.603 23209876.304 10480853.224 10 0 60561 18000.00000 0 1686283.722 24325365.355 7524617.668 10 0 60561 18900.00000 0 1797693.438 25064592.370 4422383.571 10 0 60561 19800.00000 0 1952981.903 25406960.044 1234309.871 10 0 60561 20700.00000 0 2097122.184 25344934.763 -1977729.050 10 0 60561 21600.00000 0 2175141.420 24884336.099 -5151343.009 10 0 60561 22500.00000 0 2134693.449 24044085.657 -8224839.717 10 0 60561 23400.00000 0 1928525.268 22855424.662 -11138428.516 10 0 60561 24300.00000 0 1516731.784 21360632.120 -13835390.149 10 0 60561 25200.00000 0 868701.924 19611296.544 -16263189.034 10 0 60561 26100.00000 0 -35328.001 17666213.308 -18374505.507 10 0 60561 27000.00000 0 -1203181.272 15588995.638 -20128167.101 10 0 60561 27900.00000 0 -2630156.261 13445499.475 -21489959.959 10 0 60561 28800.00000 0 -4298977.070 11301170.437 -22433303.895 10 0 60561 29700.00000 0 -6180283.173 9218424.355 -22939777.418 10 0 60561 30600.00000 0 -8233639.092 7254171.454 -22999482.110 10 0 60561 31500.00000 0 -10409022.926 5457588.070 -22611238.943 10 0 60561 32400.00000 0 -12648732.178 3868229.262 -21782612.559 10 0 60561 33300.00000 0 -14889627.575 2514561.072 -20529762.946 10 0 60561 34200.00000 0 -17065621.061 1412973.401 -18877127.425 10 0 60561 35100.00000 0 -19110303.687 567313.941 -16856939.270 10 0 60561 36000.00000 0 -20959603.144 -31038.576 -14508592.593 10 0 60561 36900.00000 0 -22554359.201 -402566.444 -11877866.290 10 0 60561 37800.00000 0 -23842708.856 -578497.821 -9016022.734 10 0 60561 38700.00000 0 -24782181.042 -599233.301 -5978799.478 10 0 60561 39600.00000 0 -25341413.080 -512382.631 -2825314.508 10 0 60561 40500.00000 0 -25501417.187 -370496.410 383092.750 10 0 60561 41400.00000 0 -25256344.700 -228590.425 3584061.172 10 0 60561 42300.00000 0 -24613716.783 -141568.680 6715424.256 10 0 60561 43200.00000 0 -23594113.114 -161655.197 9716418.752 10 0 60561 44100.00000 0 -22230332.985 -335943.841 12528861.837 10 0 60561 45000.00000 0 -20566065.238 -704169.945 15098273.935 10 0 60561 45900.00000 0 -18654123.771 -1296797.747 17374925.857 10 0 60561 46800.00000 0 -16554323.112 -2133503.981 19314790.784 10 0 60561 47700.00000 0 -14331083.097 -3222121.123 20880383.703 10 0 60561 48600.00000 0 -12050862.377 -4558084.398 22041473.415 10 0 60561 49500.00000 0 -9779526.941 -6124405.732 22775654.740 10 0 60561 50400.00000 0 -7579762.025 -7892175.966 23068771.188 10 0 60561 51300.00000 0 -5508633.515 -9821575.031 22915181.072 10 0 60561 52200.00000 0 -3615398.470 -11863348.981 22317862.737 10 0 60561 53100.00000 0 -1939653.976 -13960693.666 21288357.252 10 0 60561 54000.00000 0 -509899.644 -16051468.250 19846549.603 10 0 60561 54900.00000 0 657427.932 -18070648.102 18020292.120 10 0 60561 55800.00000 0 1558409.639 -19952916.587 15844876.486 10 0 60561 56700.00000 0 2201569.035 -21635289.224 13362363.386 10 0 60561 57600.00000 0 2607271.822 -23059661.926 10620781.388 10 0 60561 58500.00000 0 2806624.819 -24175177.579 7673209.219 10 0 60561 59400.00000 0 2839920.565 -24940312.251 4576757.993 10 0 60561 60300.00000 0 2754692.726 -25324593.390 1391472.062 10 0 60561 61200.00000 0 2603464.090 -25309877.246 -1820830.801 10 0 60561 62100.00000 0 2441282.151 -24891130.797 -4997757.748 10 0 60561 63000.00000 0 2323146.668 -24076684.017 -8077554.395 10 0 60561 63900.00000 0 2301438.555 -22887940.435 -11000309.609 10 0 60561 64800.00000 0 2423459.812 -21358556.744 -13709127.474 10 0 60561 65700.00000 0 2729189.837 -19533124.695 -16151242.919 10 0 60561 66600.00000 0 3249354.581 -17465409.666 -18279058.367 10 0 60561 67500.00000 0 4003891.913 -15216219.142 -20051080.417 10 0 60561 68400.00000 0 5000879.855 -12850990.093 -21432737.548 10 0 60561 69300.00000 0 6235974.767 -10437196.272 -22397062.207 10 0 60561 70200.00000 0 7692384.876 -8041684.042 -22925223.492 10 0 60561 71100.00000 0 9341381.839 -5728048.359 -23006899.627 10 0 60561 72000.00000 0 11143330.070 -3554158.848 -22640482.668 10 0 60561 72900.00000 0 13049191.522 -1569939.446 -21833111.273 10 0 60561 73800.00000 0 15002443.378 184505.741 -20600530.801 10 0 60561 74700.00000 0 16941328.380 1680342.370 -18966783.460 10 0 60561 75600.00000 0 18801343.353 2900971.749 -16963734.701 10 0 60561 76500.00000 0 20517861.225 3842473.341 -14630445.285 10 0 60561 77400.00000 0 22028776.071 4513506.867 -12012401.724 10 0 60561 78300.00000 0 23277059.669 4934679.947 -9160620.638 10 0 60561 79200.00000 0 24213121.826 5137409.948 -6130645.199 10 0 60561 80100.00000 0 24796875.052 5162330.127 -2981454.077 10 0 60561 81000.00000 0 24999416.915 5057309.512 225694.913 10 0 60561 81900.00000 0 24804259.666 4875172.072 3428463.084 10 0 60561 82800.00000 0 24208056.021 4671213.268 6564646.895 10 0 60561 83700.00000 0 23220791.531 4500620.349 9573387.458 10 0 60561 84600.00000 0 21865436.407 4415906.299 12396349.716 10 0 60561 85500.00000 0 20177072.450 4464466.355 14978848.395 99